Mytilini, Greece

1:54 AM EET on December 10, 2018 (GMT +0200)
Odysseas Elytis

Weather History for LGMT - December, 2018

Change the Weather History Date:

Friday, December 7, 2018

  Actual Average Record
Temperature  
Mean Temperature 48 °F -  
Max Temperature 51 °F 56 °F 68 °F (2008)
Min Temperature 44 °F 47 °F 37 °F (2013)
Degree Days  
Heating Degree Days 18    
Moisture  
Dew Point 32 °F    
Average Humidity 54    
Maximum Humidity 66    
Minimum Humidity 34    
Precipitation  
Precipitation 0.00 in 0.19 in - ()
Sea Level Pressure  
Sea Level Pressure 30.16 in    
Wind  
Wind Speed 12 mph ()    
Max Wind Speed 17 mph    
Max Gust Speed 25 mph    
Visibility 6.4 miles    
Events      
Averages and records for this station are not official NWS values.
T = Trace of Precipitation, MM = Missing Value Source: Averaged Metar Reports

Daily Weather History Graph

Daily Weather History Graph

Search for Another Location

Airport or City:

Astronomy

Dec. 07, 2018 Rise Set
Actual Time 7:18 AM EET 4:50 PM EET
Civil Twilight 6:49 AM EET 5:20 PM EET
Nautical Twilight 6:15 AM EET 5:54 PM EET
Astronomical Twilight 5:43 AM EET 6:26 PM EET
Moon 7:07 AM EET (12/7) 5:13 PM EET (12/7)
Length of Visible Light 10h 31m
Length of Day
9h 31m
New Moon, 0% of the Moon is Illuminated
Dec 7
New Moon
Dec 15
First Quarter
Dec 22
Full
Dec 29
Last Quarter
Jan 6
New

Hourly Weather History & Observations

Time (EET) Temp. Windchill Dew Point Humidity Pressure Visibility Wind Dir Wind Speed Gust Speed Precip Events Conditions
6:20 AM 44.6 °F 38.1 °F 33.8 °F 66% 30.15 in 6.2 mi North 13.8 mph 25.3 mph N/A   Scattered Clouds
6:50 AM 44.6 °F 38.1 °F 33.8 °F 66% 30.18 in 6.2 mi North 13.8 mph 25.3 mph N/A   Partly Cloudy
7:20 AM 44.6 °F 38.1 °F 33.8 °F 66% 30.18 in 6.2 mi North 13.8 mph 25.3 mph N/A   Partly Cloudy
7:50 AM 44.6 °F 37.8 °F 32.0 °F 61% 30.18 in 6.2 mi North 15.0 mph - N/A   Partly Cloudy
8:00 AM 45 °F - 33 °F 50% 30.19 in 6 mi North 15.0 mph - -   Scattered Clouds
8:20 AM 46.4 °F 40.4 °F 32.0 °F 57% 30.18 in 6.2 mi North 13.8 mph - N/A   Partly Cloudy
8:50 AM 46.4 °F 40.4 °F 33.8 °F 62% 30.18 in 6.2 mi North 13.8 mph - N/A   Partly Cloudy
9:20 AM 46.4 °F 40.7 °F 33.8 °F 62% 30.21 in 6.2 mi North 12.7 mph - N/A   Partly Cloudy
9:50 AM 46.4 °F 40.7 °F 33.8 °F 62% 30.21 in 6.2 mi North 12.7 mph - N/A   Partly Cloudy
10:20 AM 46.4 °F 41.1 °F 33.8 °F 62% 30.21 in 6.2 mi North 11.5 mph - N/A   Partly Cloudy
10:50 AM 48.2 °F - 32.0 °F 54% 30.18 in 6.2 mi North 11.5 mph - N/A   Partly Cloudy
11:00 AM 47 °F - 32 °F 44% 30.20 in 7 mi North 11.5 mph - -   Scattered Clouds
11:20 AM 48.2 °F - 32.0 °F 54% 30.18 in 6.2 mi North 11.5 mph - N/A   Partly Cloudy
12:20 PM 48.2 °F - 32.0 °F 54% 30.18 in 6.2 mi North 16.1 mph - N/A   Partly Cloudy
12:50 PM 50.0 °F - 32.0 °F 50% 30.15 in 6.2 mi North 13.8 mph - N/A   Partly Cloudy
1:20 PM 50.0 °F - 32.0 °F 50% 30.15 in 6.2 mi North 13.8 mph - N/A   Partly Cloudy
1:50 PM 50.0 °F - 32.0 °F 50% 30.15 in 6.2 mi North 16.1 mph - N/A   Partly Cloudy
2:00 PM 50 °F - 33 °F 39% 30.17 in 7 mi North 16.1 mph - -   Scattered Clouds
2:20 PM 50.0 °F - 32.0 °F 50% 30.12 in 6.2 mi NNW 17.3 mph - N/A   Partly Cloudy
2:50 PM 50.0 °F - 32.0 °F 50% 30.12 in 6.2 mi North 12.7 mph - N/A   Partly Cloudy
3:20 PM 50.0 °F - 32.0 °F 50% 30.12 in 6.2 mi North 15.0 mph - N/A   Partly Cloudy
3:50 PM 50.0 °F - 32.0 °F 50% 30.12 in 6.2 mi North 13.8 mph - N/A   Partly Cloudy
4:20 PM 48.2 °F - 33.8 °F 58% 30.12 in 6.2 mi North 11.5 mph - N/A   Partly Cloudy
5:00 PM 48 °F - 28 °F 34% 30.15 in 9 mi NNW 13.8 mph - -   Scattered Clouds
5:20 PM 48.2 °F - 28.4 °F 46% 30.15 in - NNW 11.5 mph - N/A   Clear
5:50 PM 46.4 °F 41.1 °F 30.2 °F 53% 30.15 in - NNW 11.5 mph - N/A   Clear
6:20 PM 46.4 °F 41.5 °F 30.2 °F 53% 30.15 in - NNW 10.4 mph - N/A   Clear
6:50 PM 46.4 °F 41.5 °F 32.0 °F 57% 30.15 in - North 10.4 mph - N/A   Clear
7:20 PM 46.4 °F 41.1 °F 32.0 °F 57% 30.15 in 6.2 mi North 11.5 mph - N/A   Partly Cloudy
7:50 PM 46.4 °F 41.1 °F 32.0 °F 57% 30.15 in 6.2 mi North 11.5 mph - N/A   Partly Cloudy
8:00 PM 47 °F - 32 °F 43% 30.17 in 9 mi North 11.5 mph - -   Scattered Clouds
8:20 PM 46.4 °F 40.7 °F 32.0 °F 57% 30.15 in 6.2 mi NNW 12.7 mph - N/A   Partly Cloudy
8:50 PM 46.4 °F 41.1 °F 28.4 °F 50% 30.15 in 6.2 mi NNW 11.5 mph - N/A   Partly Cloudy
9:20 PM 46.4 °F 41.5 °F 28.4 °F 50% 30.12 in 6.2 mi NW 10.4 mph - N/A   Partly Cloudy
9:50 PM 46.4 °F 41.9 °F 28.4 °F 50% 30.12 in 6.2 mi NW 9.2 mph - N/A   Partly Cloudy